This demonstration page uses our WeatherBlox Daily Observations layout. Learn more.

Left ArrowRight Arrow

39.01783, -85.05884

Hourly Observations for February 16, 2016

Temp ( °F °C ) Dew Point ( °F °C ) Humidity (%) Winds ( mph kmh ) Pressure ( in mb ) Visibility ( mi km ) Precip ( " mm )
12:52 am 00:52 Mostly Cloudy with Light Rain 34 1.1 33 0.6 97 97 NNW 5 7 29.75 1008 0 0 0.02 0.51
1:52 am 01:52 Mostly Cloudy with Light Rain 33 0.6 33 0.6 100 100 WNW 6 9 29.75 1008 0 0 0.00 0.03
2:52 am 02:52 Mostly Cloudy with Fog 33 0.6 33 0.6 100 100 W 6 9 29.76 1008 1 2 0.00 0.03
3:25 am 03:25 Mostly Cloudy with Fog 34 1 32 0 93 93 WNW 5 7 29.74 1007 1 2 0.00 0.00
3:52 am 03:52 Mostly Cloudy with Fog 33 0.6 32 0 96 96 WNW 5 7 29.74 1007 1 2 0.00 0.00
4:30 am 04:30 Mostly Cloudy with Fog 34 1 32 0 93 93 WNW 6 9 29.77 1008 0 0 0.00 0.00
4:52 am 04:52 Mostly Cloudy with Fog 33 0.6 32 0 96 96 WNW 8 13 29.74 1007 0 0 0.00 0.00
5:21 am 05:21 Cloudy with Mist and Fog 34 1 32 0 93 93 WNW 9 15 29.77 1008 0 0 0.00 0.00
5:52 am 05:52 Cloudy with Mist and Fog 32 0 31 -0.6 96 96 W 13 20 29.76 1008 0 0 0.00 0.00
5:58 am 05:58 Cloudy with Mist and Fog 32 0 30 -1 93 93 WNW 10 17 29.77 1008 2 2 0.00 0.00
6:07 am 06:07 Cloudy with Mist and Fog 32 0 30 -1 93 93 WNW 9 15 29.77 1008 1 1 0.00 0.00
6:34 am 06:34 Cloudy with Mist and Fog 32 0 30 -1 93 93 W 14 22 29.80 1009 2 2 0.00 0.00
6:52 am 06:52 Cloudy with Mist and Fog 32 0 30 -1.1 92 92 WNW 10 17 29.77 1008 2 2 0.00 0.00
6:58 am 06:58 Cloudy with Mist and Fog 32 0 30 -1 93 93 WNW 12 19 29.80 1009 3 5 0.00 0.00
7:38 am 07:38 Cloudy with Mist and Fog 32 0 28 -2 87 87 WNW 10 17 29.80 1009 3 5 0.00 0.00
7:41 am 07:41 Cloudy with Mist and Fog 32 0 28 -2 87 87 WNW 8 13 29.80 1009 6 10 0.00 0.00
7:52 am 07:52 Mostly Cloudy with Mist and Fog 31 -0.6 29 -1.7 92 92 WNW 7 11 29.79 1009 6 10 0.00 0.00
8:11 am 08:11 Partly Cloudy with Mist and Fog 30 -1 28 -2 93 93 W 6 9 29.83 1010 6 10 0.00 0.00
8:30 am 08:30 Mostly Cloudy with Mist and Fog 32 0 28 -2 87 87 W 9 15 29.85 1011 5 8 0.00 0.00
8:52 am 08:52 Cloudy with Mist and Fog 32 0 28 -2.2 85 85 W 8 13 29.83 1010 6 10 0.00 0.00
9:52 am 09:52 Cloudy 32 0 27 -2.8 82 82 NW 9 15 29.84 1011 7 11 0.00 0.00
10:52 am 10:52 Cloudy 33 0.6 27 -2.8 78 78 WSW 3 6 29.85 1011 7 11 0.00 0.00
11:52 am 11:52 Cloudy 33 0.6 28 -2.2 82 82 W 6 9 29.84 1011 7 11 0.00 0.00
12:52 pm 12:52 Cloudy 35 1.7 29 -1.7 78 78 W 5 7 29.82 1010 7 11 0.00 0.00
1:52 pm 13:52 Cloudy 36 2.2 29 -1.7 76 76 W 6 9 29.80 1009 7 11 0.00 0.00
2:52 pm 14:52 Cloudy 37 2.8 28 -2.2 70 70 WNW 9 15 29.79 1009 10 16 0.00 0.00
3:52 pm 15:52 Cloudy 38 3.3 29 -1.7 70 70 WNW 6 9 29.80 1009 10 16 0.00 0.00
4:38 pm 16:38 Cloudy 37 3 28 -2 70 70 WNW 7 11 29.83 1010 10 16 0.00 0.00
4:52 pm 16:52 Cloudy 38 3.3 29 -1.7 70 70 W 6 9 29.81 1010 10 16 0.00 0.00
5:52 pm 17:52 Cloudy 36 2.2 28 -2.2 73 73 NW 5 7 29.85 1011 10 16 0.00 0.00
6:52 pm 18:52 Cloudy 34 1.1 28 -2.2 79 79 NW 6 9 29.88 1012 10 16 0.00 0.00
7:52 pm 19:52 Cloudy 33 0.6 27 -2.8 78 78 NNW 5 7 29.91 1013 9 14 0.00 0.00
8:52 pm 20:52 Mostly Cloudy 32 0 26 -3.3 79 79 NNW 3 6 29.93 1013 8 13 0.00 0.00
9:52 pm 21:52 Mostly Clear 30 -1.1 26 -3.3 85 85 Calm 29.94 1014 7 11 0.00 0.00
10:52 pm 22:52 Clear with Mist and Fog 26 -3.3 24 -4.4 92 92 Calm 29.96 1014 5 8 0.00 0.00
11:44 pm 23:44 Mostly Cloudy with Mist and Fog 27 -3 25 -4 93 93 Calm 30.00 1016 4 6 0.00 0.00
11:52 pm 23:52 Mostly Cloudy with Mist and Fog 26 -3.3 25 -3.9 96 96 Calm 29.97 1015 4 6 0.00 0.00

Powered by AerisWeather